Regional Weather Roundup
Issued by NWS

Home | Current Version | Previous Version | Text Only | Print | Product List | Glossary On
Versions: 1 2 3 4 5 6 7 8 9 10 11 12 13 14 15 16 17 18 19 20 21 22 23 24 25 26 27 28 29 30 31 32 33 34 35 36 37 38 39 40 41 42 43 44 45 46 47 48 49 50
000
ASUS43 KLOT 292300
RWRIL

ILLINOIS REGIONAL WEATHER ROUNDUP
NATIONAL WEATHER SERVICE CHICAGO/ROMEOVILLE IL
500 PM CST THU JAN 29 2015

NOTE: "FAIR" INDICATES FEW OR NO CLOUDS BELOW 12,000 FEET WITH NO
SIGNIFICANT WEATHER AND/OR OBSTRUCTIONS TO VISIBILITY.

* THESE STATIONS ARE NOT UNDER NWS QUALITY CONTROL. THEY ALSO MAY NOT
  REPORT WEATHER SUCH AS PRECIPITATION OR FOG.

ILZ001-002-007-009-015-016-024-300000-
NORTHWEST ILLINOIS

CITY           SKY/WX    TMP DP  RH WIND       PRES   REMARKS
MOLINE         CLOUDY    34  25  69 NW26G36   30.23R WCI  21
STERLING*      CLOUDY    36  27  69 NW14      30.18R WCI  27
$$

ILZ003-004-008-010-011-017-018-300000-
NORTH CENTRAL ILLINOIS

CITY           SKY/WX    TMP DP  RH WIND       PRES   REMARKS
ROCKFORD       CLOUDY    35  25  66 NW10      30.16R WCI  27
FREEPORT*      CLOUDY    34  26  72 NW13G22   30.18R WCI  25
DE KALB*       CLOUDY    33  25  73 NW12      30.13R WCI  24
$$

ILZ005-006-012>014-019>023-300000-
NORTHEAST ILLINOIS

CITY           SKY/WX    TMP DP  RH WIND       PRES   REMARKS
CHICAGO-OHARE  CLOUDY    34  25  69 NW17      30.09R WCI  23
CHICAGO-MIDWAY CLOUDY    36  27  69 NW17G26   30.11R WCI  26
AURORA         CLOUDY    35  24  64 NW20G29   30.12R WCI  24
WAUKEGAN       CLOUDY    34  24  67 NW9G24    30.08R WCI  27
DUPAGE AIRPORT CLOUDY    35  24  64 N16G29    30.11R WCI  25
WHEELING       CLOUDY    34  25  69 NW13G22   30.11R WCI  25
NORTHERLY ISL    N/A     35  26  70 NW13        N/A  WCI  26
$$

LMZ740>746-300000-
SOUTHERN LAKE MICHIGAN

STATION/POSITION SKY/WX   TEMP    WIND        PRES    VSBY  WAVE
                          AIR SEA DIR/SP/G                  HT/PER
                          (F)     (DEG/KT/KT) (MB)    (MI)  (FT/S)
WAUKEGAN HARBOR            35     330/ 16/ 22   N/A
HARRISON CRIB              34     320/ 16/ 19   N/A
BURNHAM HARBOR             35     290/  7/ 15   N/A
CALUMET HARBOR             35     300/  8/ 17   N/A
MICHIGAN CITY              34     300/ 21/ 25   N/A
$$

ILZ025>027-034>036-040-047-049-050-058-095>099-300000-
WEST-CENTRAL ILLINOIS

CITY           SKY/WX    TMP DP  RH WIND       PRES   REMARKS
QUINCY         CLOUDY    34  26  72 NW18G26   30.30R WCI  23
$$

ILZ028>032-037-038-041>044-048-051>054-059>061-300000-
CENTRAL ILLINOIS

CITY           SKY/WX    TMP DP  RH WIND       PRES   REMARKS
DECATUR        LGT SNOW  35  31  85 NW17G31   30.21R FOG     WCI  25
PEORIA         CLOUDY    37  30  75 NW10G23   30.22R WCI  30
LINCOLN*       DRIZZLE   36  33  87 NW9       30.23R WCI  29
SPRINGFIELD    CLOUDY    37  29  72 NW16      30.24R WCI  28
TAYLORVILLE    NOT AVBL
$$

ILZ033-039-045-046-055>057-062-063-300000-
EAST-CENTRAL ILLINOIS

CITY           SKY/WX    TMP DP  RH WIND       PRES   REMARKS
CHAMPAIGN      CLOUDY    35  30  82 NW17      30.17R WCI  25
MATTOON        CLOUDY    35  31  85 NW15      30.18R WCI  25
$$

ILZ079-100>102-300000-
SOUTHWEST ILLINOIS

CITY           SKY/WX    TMP DP  RH WIND       PRES   REMARKS
ALTON          CLOUDY    39  30  70 NW21      30.27R WCI  29
BELLEVILLE     CLOUDY    41  32  71 NW17      30.26R
CAHOKIA*       CLOUDY    42  31  64 NW22G32   30.28R
$$

ILZ064>066-069>071-074>076-080>082-084>086-088>090-092>094-300000-
SOUTH-CENTRAL ILLINOIS

CITY           SKY/WX    TMP DP  RH WIND       PRES   REMARKS
CARBONDALE     CLOUDY    41  31  67 NW12      30.26R
MARION         CLOUDY    41  32  70 NW16      30.26R
MT. VERNON     CLOUDY    39  30  70 NW7       30.25R WCI  34
$$

ILZ067-068-072-073-078-083-087-091-300000-
SOUTHEAST ILLINOIS

CITY           SKY/WX    TMP DP  RH WIND       PRES   REMARKS
LAWRENCEVILLE  CLOUDY    37  32  82 NW16      30.20R HAZE    WCI  28
$$

ABBREVIATIONS USED IN REMARKS
   TC - TEMPERATURE IN CELSIUS
  WCI - WIND CHILL INDEX
   HX - HEAT INDEX
  VSB - VISIBILITY
$$



USA.gov is the U.S. government's official web portal to all federal, state and local government web resources and services.